This is the latest recevied weather packets stored in our database for station/object SQ7IQO. If no packets are shown the sender has not sent any weather packets the latest 10 day(s).
| Time | Temp. | Humidity | Pressure | Rain* | Wind** | Luminosity | Snow |
|---|---|---|---|---|---|---|---|
| 1787987021 | 16.67° C | 98% | 1013.4 hPa | 44.96 mm | 1.34 m/s, ° | - | - |
| 1787986961 | 16.67° C | 98% | 1013.3 hPa | 44.96 mm | 0.89 m/s, ° | - | - |
| 1787986901 | 16.67° C | 98% | 1013.3 hPa | 44.96 mm | 0.89 m/s, ° | - | - |
| 1787986841 | 16.67° C | 97% | 1013.3 hPa | 44.96 mm | 0.45 m/s, ° | - | - |
| 1787986781 | 16.67° C | 97% | 1013.3 hPa | 21.84 mm | 0.89 m/s, ° | - | - |
| 1787986721 | 16.67° C | 97% | 1013.3 hPa | 21.84 mm | 0.89 m/s, ° | - | - |
| 1787986661 | 16.67° C | 97% | 1013.3 hPa | 21.84 mm | 1.34 m/s, ° | - | - |
| 1787986601 | 16.67° C | 97% | 1013.3 hPa | 21.84 mm | 0.89 m/s, ° | - | - |
| 1787986541 | 16.67° C | 97% | 1013.2 hPa | 21.84 mm | 1.34 m/s, ° | - | - |
| 1787986481 | 16.67° C | 97% | 1013.2 hPa | 21.84 mm | 0.45 m/s, ° | - | - |
| 1787986421 | 16.67° C | 97% | 1013.2 hPa | 21.84 mm | 0.45 m/s, ° | - | - |
| 1787986361 | 17.22° C | 97% | 1013.2 hPa | 21.84 mm | 0.89 m/s, ° | - | - |
| 1787986301 | 16.67° C | 97% | 1013.2 hPa | 21.84 mm | 0 m/s | - | - |
| 1787986241 | 16.67° C | 97% | 1013.2 hPa | 21.84 mm | 0.45 m/s, ° | - | - |
| 1787986181 | 16.67° C | 96% | 1011.1 hPa | 21.84 mm | 0.89 m/s, ° | - | - |
| 1787986121 | 17.22° C | 97% | 1013.2 hPa | 21.84 mm | 0.89 m/s, ° | - | - |
| 1787986061 | 16.67° C | 97% | 1256 hPa | 0 mm | 0.45 m/s, ° | - | - |
| 1787986001 | 16.67° C | 97% | 1013.2 hPa | 0 mm | 0.45 m/s, ° | - | - |
| 1787985941 | 16.67° C | 97% | 1013.1 hPa | 0 mm | 0.45 m/s, ° | - | - |
| 1787985881 | 16.67° C | 97% | 1013.1 hPa | 0 mm | 0.45 m/s, ° | - | - |
| 1787985821 | 16.67° C | 97% | 1013.1 hPa | 0 mm | 0.45 m/s, ° | - | - |
| 1787985761 | 16.67° C | 97% | 1013 hPa | 0 mm | 0.89 m/s, ° | - | - |
| 1787985701 | 16.67° C | 97% | 1013.1 hPa | 0 mm | 0.89 m/s, ° | - | - |
| 1787985641 | 16.67° C | 97% | 1013.1 hPa | 0 mm | 1.34 m/s, ° | - | - |
| 1787985581 | 17.22° C | 98% | 1013.1 hPa | 0 mm | 0.45 m/s, ° | - | - |
* Rain latest hour (hover to see other rain measurements)
** Current wind speed in m/s (hover to see current wind gust speed)